Tracking 18816 objects as of 17-October-2017
HD Live streaming from Space Station
objects crossing your sky now

SILKROAD 1

Track SILKROAD 1 now!
10-day predictions


NORAD ID: 42903
Int'l Code: 2017-021F
Perigee: 385.3 km
Apogee: 393.9 km
Inclination: 42.8 °
Period: 92.2 minutes
Semi major axis: 6760 km
RCS: Unknown
Launch date: April 20, 2017
Source: People's Republic of China (PRC)
Launch site: Wenchang Satellite Launch Center (WSC)
aabbcc
Your satellite tracking list
Your tracking list is empty





NASA's NSSDC Master Catalog

Two Line Element Set (TLE):
1 42903U 17021F   17289.62114296  .00025221  00000-0  28652-3 0  9995
2 42903  42.7826 352.5583 0006375  18.8871 108.8082 15.61791629 11729
Source of the keplerian elements: AFSPC